Regional Weather Roundup
Issued by NWS

Home | Current Version | Previous Version | Graphics & Text | Print | Product List | Glossary On
Versions: 1 2 3 4 5 6 7 8 9 10 11 12 13 14 15 16 17 18 19 20 21 22 23 24 25 26 27 28 29 30 31 32 33 34 35 36 37 38 39 40 41 42 43 44 45 46 47 48 49
000
ASUS45 KCYS 291710
RWRWY

WYOMING REGIONAL WEATHER ROUNDUP
NATIONAL WEATHER SERVICE CHEYENNE WY
1100 AM MDT SAT AUG 29 2015

NOTE:  "FAIR" INDICATES FEW OR NO CLOUDS BELOW 12,000 FEET
WITH NO SIGNIFICANT WEATHER AND/OR OBSTRUCTIONS TO VISIBILITY.

WYZ001-291800-
YELLOWSTONE NATIONAL PARK

CITY           SKY/WX    TMP DP  RH WIND       PRES   REMARKS
LK YELLOWSTONE   N/A     65  37  35 E3        30.34S
W YELLOWSTONE  NOT AVBL

$$
WYZ002>013-054>058-071-098>099-291800-
NORTHERN WYOMING

CITY           SKY/WX    TMP DP  RH WIND       PRES   REMARKS
JACKSON        FAIR      66  43  42 SW5       30.26F
CODY           FAIR      84  39  20 SW8       30.09F
GREYBULL       FAIR      79  42  26 VRB5      30.05F
WORLAND        FAIR      79  50  36 W3        30.06F
SHERIDAN       FAIR      82  47  29 N3        30.02F
BUFFALO        FAIR      87  37  17 SE7       30.11S
GILLETTE       FAIR      87  45  23 S16       30.07F
HULETT         FAIR      86  43  22 S14       30.10F
NEWCASTLE      FAIR      81  41  24 SE8       30.15S

$$
WYZ014>020-022>026-101>103-291800-
CENTRAL WYOMING

CITY           SKY/WX    TMP DP  RH WIND       PRES   REMARKS
BIG PINEY      FAIR      69  36  29 VRB3      30.33F
PINEDALE       FAIR      73  32  21 S9        30.33F
DUBOIS         FAIR      73  37  27 E3        30.29S
LANDER         FAIR      73  41  31 CALM      30.18F
RIVERTON       FAIR      75  46  35 VRB3      30.19F
CASPER         FAIR      85  37  18 SW21G26   30.19F
DOUGLAS        FAIR      85  38  18 SE8       30.18F

$$
WYZ021-027>030-104>119-291800-
SOUTHERN WYOMING

CITY           SKY/WX    TMP DP  RH WIND       PRES   REMARKS
EVANSTON       FAIR      78  35  21 SW13      30.31S
KEMMERER       FAIR      75  32  20 SE5       30.33F
FORT BRIDGER   SUNNY     75  36  23 NE6       30.34S
ROCK SPRINGS   FAIR      77  37  23 E3        30.31F
DIXON          FAIR      76  37  24 W3        30.36S
RAWLINS        FAIR      75  39  27 VRB3      30.34F
SARATOGA       FAIR      73  37  27 SE9       30.37S
LARAMIE        FAIR      73  40  30 VRB3      30.37S
CHEYENNE       FAIR      80  42  25 S13G21    30.30F
TORRINGTON     FAIR      79  47  32 SE5       30.16F
PINE BLUFFS    FAIR      81  37  21 SW10G16   30.26S

$$



USA.gov is the U.S. government's official web portal to all federal, state and local government web resources and services.